Tracking 18917 objects as of 16-Jan-2018
HD Live streaming from Space Station
objects crossing your sky now

FENGYUN 1C DEB

Track FENGYUN 1C DEB now!
10-day predictions


NORAD ID: 36652
Int'l Code: 1999-025DXW
Perigee: 827.7 km
Apogee: 920.3 km
Inclination: 99.1 °
Period: 102.3 minutes
Semi major axis: 7245 km
RCS: 0.0089 m2 (small)
Launch date: May 10, 1999
Source: People's Republic of China (PRC)
Launch site: Taiyaun Space Center, China (TSC)

Note: This is SATELLITE DEBRIS
aabbcc
Your satellite tracking list
Your tracking list is empty




NASA's NSSDC Master Catalog

Two Line Element Set (TLE):
1 36652U 99025DXW 18013.26743077  .00000620  00000-0  38577-3 0  9997
2 36652  99.1198  41.0355 0063931 210.9593 148.7800 14.07807409493004
Source of the keplerian elements: AFSPC